Torna al catalogo

ARIANE 44L R/B

AttivoHEO
NORAD 26901·ROCKET BODY·🇫🇷 France

Lanciato Aug 30, 2001 da Guiana Space Centre

Loading…

Prossimi Passaggi (prossime 24 ore)

TLE

AggiornatoSource: Space-Track

Epoca: Sep 14, 2026, 10:12 UTC

1 26901U 01039B   26257.42558153  .00003613  00000-0  12919-2 0  9993
2 26901   7.6655 287.2514 6389098 334.3025   4.4801  3.45243908246749

Traccia ARIANE 44L R/B in tempo reale con AllMySat

Download on the App Store